EW1898 Weather Reports


time (UTC)temp
C
wind
direction
speed
KPH
gust
KPH
rain 1hr
cm
rain 24hr
cm
rain mn
cm
humidity
%
barometer
mb
20260905040004 17 294 0.0 0.0 0.00 0.00 0.00 88 1008.8
20260905034503 17 294 0.0 0.0 0.00 0.00 0.00 85 1008.8
20260905033003 18 294 0.0 4.8 0.00 0.00 0.00 84 1008.8
20260905031503 18 291 0.0 1.6 0.00 0.00 0.00 83 1008.9
20260905030003 18 291 0.0 0.0 0.00 0.00 0.00 81 1008.9
20260905024502 19 291 0.0 1.6 0.00 0.00 0.00 79 1008.9
20260905023100 19 291 0.0 0.0 0.00 0.00 0.00 78 1009.0
20260905021602 20 291 0.0 1.6 0.00 0.00 0.00 76 1009.1
20260905020058 20 291 0.0 3.2 0.00 0.00 0.00 75 1009.2
20260905014557 20 291 0.0 1.6 0.00 0.00 0.00 74 1009.2
20260905013057 20 291 0.0 1.6 0.00 0.00 0.00 71 1009.3
20260905011615 21 291 0.0 1.6 0.00 0.00 0.00 71 1009.3
20260905010055 20 291 0.0 3.2 0.00 0.00 0.00 71 1009.3
20260905004555 21 291 0.0 1.6 0.00 0.00 0.00 70 1009.1
20260905003057 21 291 1.6 4.8 0.00 0.00 0.00 69 1009.1
20260905001606 21 291 0.0 0.0 0.00 0.00 0.00 69 1009.1
20260905000054 22 291 0.0 1.6 0.00 0.00 0.00 68 1008.9
20260904234554 22 291 0.0 1.6 0.00 0.00 0.00 65 1008.7
20260904233104 22 291 0.0 3.2 0.00 0.00 0.00 63 1008.6
20260904231552 23 281 1.6 4.8 0.00 0.00 0.00 61 1008.4
20260904230051 23 295 3.2 8.0 0.00 0.00 0.00 60 1008.3
20260904224550 23 301 1.6 6.4 0.00 0.00 0.00 61 1008.3
20260904223054 24 295 1.6 8.0 0.00 0.00 0.00 60 1008.2
20260904221554 25 284 1.6 6.4 0.00 0.00 0.00 60 1008.2
20260904214550 25 294 0.0 3.2 0.00 0.00 0.00 59 1008.1
20260904213050 25 293 1.6 6.4 0.00 0.00 0.00 60 1008.2
20260904211547 25 296 1.6 9.7 0.00 0.00 0.00 60 1008.2
20260904210046 26 295 1.6 11.3 0.00 0.00 0.00 59 1008.2
20260904204546 25 276 3.2 6.4 0.00 0.00 0.00 59 1008.1
20260904203048 25 301 1.6 8.0 0.00 0.00 0.00 59 1008.2
20260904201600 26 324 3.2 9.7 0.00 0.00 0.00 58 1008.3
20260904200050 26 285 3.2 14.5 0.00 0.00 0.00 55 1008.0
20260904194542 26 265 3.2 12.9 0.00 0.00 0.00 52 1008.1
20260904193045 27 298 0.0 12.9 0.00 0.00 0.00 53 1007.8
20260904191541 26 303 3.2 11.3 0.00 0.00 0.00 55 1007.8
20260904190037 26 278 3.2 9.7 0.00 0.00 0.00 51 1008.1
20260904184541 26 294 1.6 11.3 0.00 0.00 0.00 56 1008.2
20260904183033 26 168 1.6 19.3 0.00 0.00 0.00 56 1008.3
20260904181536 26 287 6.4 14.5 0.00 0.00 0.00 56 1008.3
20260904180029 26 300 3.2 14.5 0.00 0.00 0.00 59 1008.4
20260904174528 26 264 4.8 12.9 0.00 0.00 0.00 58 1008.3
20260904173024 25 279 1.6 11.3 0.00 0.00 0.00 61 1008.4
20260904171535 25 297 0.0 6.4 0.00 0.00 0.00 66 1008.4
20260904170020 25 298 3.2 8.0 0.00 0.00 0.00 67 1008.8
20260904164519 25 284 1.6 9.7 0.00 0.00 0.00 66 1008.7
20260904163020 25 294 3.2 8.0 0.00 0.00 0.00 69 1008.7
20260904161517 25 288 3.2 8.0 0.00 0.00 0.00 70 1008.8
20260904160011 25 289 4.8 9.7 0.00 0.00 0.00 70 1009.1
20260904154511 24 296 3.2 11.3 0.00 0.00 0.00 72 1009.2
20260904153007 24 290 1.6 11.3 0.00 0.00 0.00 75 1009.4
20260904151506 24 284 0.0 8.0 0.00 0.00 0.00 77 1009.4
20260904150004 23 292 3.2 11.3 0.00 0.00 0.00 77 1009.4
20260904144619 23 291 0.0 8.0 0.00 0.00 0.00 79 1009.6
20260904143058 23 301 0.0 6.4 0.00 0.00 0.00 82 1009.8
20260904141559 22 296 1.6 8.0 0.00 0.00 0.00 84 1009.8
20260904140050 21 286 0.0 6.4 0.00 0.00 0.00 89 1009.9
20260904134547 21 291 0.0 3.2 0.00 0.00 0.00 92 1009.9
20260904133042 20 293 0.0 3.2 0.00 0.00 0.00 94 1009.9
20260904131538 19 295 0.0 3.2 0.00 0.00 0.00 98 1010.1
20260904130036 18 295 1.6 4.8 0.00 0.00 0.00 99 1010.0
20260904124544 18 296 0.0 3.2 0.00 0.00 0.00 99 1010.0
20260904123033 18 297 0.0 1.6 0.00 0.00 0.00 99 1010.0
20260904121533 17 297 1.6 4.8 0.00 0.00 0.00 99 1010.0
20260904120031 17 297 0.0 1.6 0.00 0.00 0.00 99 1009.9
20260904114538 17 297 0.0 0.0 0.00 0.00 0.00 99 1009.9
20260904113039 17 297 0.0 0.0 0.00 0.00 0.00 99 1009.9
20260904111530 17 297 0.0 3.2 0.00 0.00 0.00 99 1009.9
20260904110030 17 297 0.0 3.2 0.00 0.00 0.00 99 1009.9
20260904104532 17 304 0.0 0.0 0.00 0.00 0.00 99 1009.8
20260904103036 17 130 0.0 0.0 0.00 0.00 0.00 99 1009.6
20260904101527 17 130 0.0 0.0 0.00 0.00 0.00 99 1009.4
20260904100026 17 130 0.0 0.0 0.00 0.00 0.00 99 1009.2
20260904094528 17 130 0.0 0.0 0.00 0.13 0.00 99 1009.4
20260904093024 17 130 0.0 0.0 0.00 0.13 0.00 99 1009.4
20260904091523 17 130 0.0 0.0 0.00 0.13 0.00 99 1009.4
20260904090022 17 130 0.0 0.0 0.00 0.13 0.00 99 1009.4
20260904084521 17 130 0.0 0.0 0.00 0.20 0.00 99 1009.4
20260904083020 17 130 0.0 0.0 0.00 0.20 0.00 99 1009.4
20260904081518 17 130 0.0 0.0 0.00 0.20 0.00 99 1009.6
20260904080017 17 130 0.0 0.0 0.00 0.20 0.00 99 1009.8
20260904074517 17 130 0.0 0.0 0.00 0.20 0.00 99 1009.8
20260904073015 17 130 0.0 0.0 0.00 0.20 0.00 99 1009.7
20260904071514 17 130 0.0 0.0 0.00 0.20 0.00 99 1009.7
20260904070015 17 130 0.0 0.0 0.00 0.20 0.00 99 1009.8
20260904064512 17 130 0.0 0.0 0.00 0.20 0.00 99 1009.9
20260904063011 17 130 0.0 0.0 0.00 0.20 0.00 99 1010.1
20260904061512 17 130 0.0 0.0 0.00 0.20 0.00 99 1010.1
20260904060007 17 130 0.0 0.0 0.00 0.20 0.00 99 1010.4
20260904054507 18 130 0.0 0.0 0.00 0.20 0.00 99 1010.6
20260904053005 18 130 0.0 0.0 0.00 0.20 0.00 99 1010.8
20260904051509 18 130 0.0 3.2 0.00 0.20 0.00 99 1010.9
20260904050003 18 130 0.0 3.2 0.00 0.20 0.00 99 1010.8
20260904044602 18 132 0.0 4.8 0.00 0.20 0.00 98 1010.9
20260904043119 18 168 0.0 1.6 0.00 0.20 0.00 98 1011.0
20260904041559 18 170 0.0 4.8 0.00 0.20 0.00 98 1011.2